GW6781 Weather Reports


Display with metric or nautical units.
time (UTC)temp
F
wind
direction
speed
MPH
gust
MPH
rain 1hr
in
rain 24hr
in
rain mn
in
humidity
%
barometer
mb
20260906075556 74 229 1.0 5.0 0.00 0.00 0.00 87 1013.3
20260906075057 74 217 2.0 5.0 0.00 0.00 0.00 86 1013.2
20260906074612 74 213 2.0 4.0 0.00 0.00 0.00 86 1013.3
20260906074057 74 232 2.0 3.0 0.00 0.00 0.00 86 1013.2
20260906073600 74 226 0.0 2.0 0.00 0.00 0.00 85 1013.2
20260906073110 74 0 0.0 2.0 0.00 0.00 0.00 85 1013.2
20260906072557 74 226 0.0 3.0 0.00 0.00 0.00 86 1013.2
20260906072059 74 0 0.0 3.0 0.00 0.00 0.00 85 1013.2
20260906071609 74 226 0.0 2.0 0.00 0.00 0.00 85 1013.3
20260906071057 74 0 0.0 0.0 0.00 0.00 0.00 85 1013.3
20260906070557 74 0 0.0 1.0 0.00 0.00 0.00 85 1013.4
20260906070134 74 0 0.0 2.0 0.00 0.00 0.00 85 1013.4
20260906065559 74 0 0.0 2.0 0.00 0.00 0.00 85 1013.5
20260906065056 73 0 0.0 0.0 0.00 0.00 0.00 86 1013.5
20260906064602 73 0 0.0 0.0 0.00 0.00 0.00 86 1013.6
20260906064056 73 0 0.0 0.0 0.00 0.00 0.00 86 1013.7
20260906063557 73 0 0.0 0.0 0.00 0.00 0.00 86 1013.7
20260906063105 73 0 0.0 0.0 0.00 0.00 0.00 86 1013.9
20260906062557 73 0 0.0 0.0 0.00 0.00 0.00 86 1014.0
20260906062057 73 0 0.0 0.0 0.00 0.00 0.00 86 1014.1
20260906061635 73 0 0.0 1.0 0.00 0.00 0.00 86 1014.2
20260906061100 73 0 0.0 1.0 0.00 0.00 0.00 86 1014.1
20260906060600 73 263 0.0 1.0 0.00 0.00 0.00 86 1014.1
20260906060104 73 0 0.0 0.0 0.00 0.00 0.00 86 1014.0
20260906055600 73 0 0.0 0.0 0.00 0.00 0.00 86 1014.0
20260906055057 73 0 0.0 0.0 0.00 0.00 0.00 85 1014.0
20260906054602 73 0 0.0 0.0 0.00 0.00 0.00 85 1014.0
20260906054057 74 0 0.0 0.0 0.00 0.00 0.00 85 1014.1
20260906053557 74 0 0.0 1.0 0.00 0.00 0.00 85 1014.1
20260906053102 74 0 0.0 1.0 0.00 0.00 0.00 85 1014.1
20260906052557 73 0 0.0 1.0 0.00 0.00 0.00 85 1014.0
20260906052058 74 0 0.0 1.0 0.00 0.00 0.00 85 1014.0
20260906051604 74 0 0.0 1.0 0.00 0.00 0.00 85 1014.1
20260906051055 74 0 0.0 1.0 0.00 0.00 0.00 85 1014.1
20260906050557 74 0 0.0 1.0 0.00 0.00 0.00 85 1014.2
20260906050115 74 0 0.0 2.0 0.00 0.00 0.00 84 1014.1
20260906045557 74 0 0.0 2.0 0.00 0.00 0.00 84 1014.1
20260906045057 74 263 0.0 3.0 0.00 0.00 0.00 84 1014.2
20260906044604 74 0 0.0 4.0 0.00 0.00 0.00 83 1014.1
20260906044057 74 301 0.0 4.0 0.00 0.00 0.00 83 1014.2
20260906043556 74 279 0.0 3.0 0.00 0.00 0.00 82 1014.2
20260906043111 75 0 0.0 2.0 0.00 0.00 0.00 81 1014.1
20260906042557 75 0 0.0 3.0 0.00 0.00 0.00 81 1014.2
20260906042056 75 0 0.0 3.0 0.00 0.00 0.00 81 1014.2
20260906041601 75 0 0.0 3.0 0.00 0.00 0.00 81 1014.2
20260906041100 75 0 0.0 3.0 0.00 0.00 0.00 80 1014.3
20260906040557 75 0 0.0 2.0 0.00 0.00 0.00 80 1014.3
20260906040119 75 0 0.0 2.0 0.00 0.00 0.00 80 1014.2
20260906035556 74 0 0.0 2.0 0.00 0.00 0.00 80 1014.3
20260906035057 74 0 0.0 1.0 0.00 0.00 0.00 81 1014.3
20260906034605 74 0 0.0 2.0 0.00 0.00 0.00 81 1014.4
20260906034057 74 0 0.0 2.0 0.00 0.00 0.00 81 1014.4
20260906033557 74 0 0.0 2.0 0.00 0.00 0.00 82 1014.4
20260906033103 74 247 0.0 2.0 0.00 0.00 0.00 83 1014.5
20260906032601 73 0 0.0 1.0 0.00 0.00 0.00 83 1014.5
20260906032100 73 0 0.0 1.0 0.00 0.00 0.00 83 1014.6
20260906031608 73 0 0.0 2.0 0.00 0.00 0.00 84 1014.6
20260906031057 73 0 0.0 2.0 0.00 0.00 0.00 84 1014.4
20260906030557 73 247 0.0 2.0 0.00 0.00 0.00 84 1014.5
20260906030110 74 0 0.0 2.0 0.00 0.00 0.00 85 1014.6
20260906025556 74 247 0.0 2.0 0.00 0.00 0.00 84 1014.6
20260906025059 74 0 0.0 2.0 0.00 0.00 0.00 85 1014.6
20260906024603 74 0 0.0 3.0 0.00 0.00 0.00 84 1014.6
20260906024101 74 0 0.0 3.0 0.00 0.00 0.00 84 1014.5
20260906023557 75 247 1.0 3.0 0.00 0.00 0.00 84 1014.4
20260906023131 75 261 0.0 2.0 0.00 0.00 0.00 83 1014.2
20260906022557 75 261 0.0 2.0 0.00 0.00 0.00 83 1014.1
20260906022059 75 0 0.0 2.0 0.00 0.00 0.00 83 1014.1
20260906021608 75 261 0.0 3.0 0.00 0.00 0.00 83 1014.0
20260906021056 75 0 0.0 3.0 0.00 0.00 0.00 82 1014.0
20260906020557 76 257 1.0 3.0 0.00 0.00 0.00 82 1014.2
20260906020104 76 199 1.0 6.0 0.00 0.00 0.00 82 1014.1
20260906015557 76 256 2.0 6.0 0.00 0.00 0.00 81 1014.2
20260906015057 76 223 1.0 5.0 0.00 0.00 0.00 81 1014.2
20260906014626 76 221 1.0 5.0 0.00 0.00 0.00 81 1014.1
20260906014058 76 191 2.0 9.0 0.00 0.00 0.00 81 1014.1
20260906013557 77 216 2.0 9.0 0.00 0.00 0.00 82 1014.0
20260906013102 77 204 0.0 1.0 0.00 0.00 0.00 81 1014.0
20260906012556 77 0 0.0 1.0 0.00 0.00 0.00 81 1013.9
20260906012057 77 0 0.0 2.0 0.00 0.00 0.00 82 1013.9
20260906011602 78 0 0.0 4.0 0.00 0.00 0.00 82 1014.0
20260906011056 78 146 0.0 4.0 0.00 0.00 0.00 81 1013.7
20260906010556 78 217 0.0 4.0 0.00 0.00 0.00 81 1013.5
20260906010107 78 0 0.0 2.0 0.00 0.00 0.00 81 1013.6
20260906005557 78 0 0.0 2.0 0.00 0.00 0.00 80 1013.5
20260906005058 79 0 0.0 2.0 0.00 0.00 0.00 79 1013.3
20260906004614 79 243 0.0 5.0 0.00 0.00 0.00 79 1013.4
20260906004100 79 0 2.0 7.0 0.00 0.00 0.00 78 1013.6
20260906003557 79 0 0.0 7.0 0.00 0.00 0.00 77 1013.4
20260906003113 80 184 4.0 7.0 0.00 0.00 0.00 77 1013.4
20260906002557 81 270 0.0 0.0 0.00 0.00 0.00 76 1013.6
20260906002057 81 0 0.0 0.0 0.00 0.00 0.00 75 1013.6
20260906001603 82 0 0.0 2.0 0.00 0.00 0.00 75 1013.4
20260906001057 82 0 0.0 2.0 0.00 0.00 0.00 75 1013.5
20260906000558 82 229 0.0 3.0 0.00 0.00 0.00 74 1013.5
20260906000111 83 0 0.0 3.0 0.00 0.00 0.00 73 1013.5
20260905235558 84 0 0.0 3.0 0.00 0.00 0.00 72 1013.4
20260905235059 84 0 0.0 7.0 0.00 0.00 0.00 72 1013.6
20260905234604 84 0 0.0 7.0 0.00 0.00 0.00 71 1013.6
20260905234058 85 235 0.0 0.0 0.00 0.00 0.00 69 1013.4
20260905233558 85 0 0.0 0.0 0.00 0.00 0.00 68 1013.6
20260905233109 85 0 0.0 0.0 0.00 0.00 0.00 68 1013.4
20260905232557 85 0 0.0 1.0 0.00 0.00 0.00 68 1013.5
20260905232057 86 0 0.0 1.0 0.00 0.00 0.00 68 1013.5
20260905231602 86 232 0.0 0.0 0.00 0.00 0.00 68 1013.4
20260905231056 86 0 0.0 0.0 0.00 0.00 0.00 68 1013.3
20260905230625 87 0 0.0 0.0 0.00 0.00 0.00 67 1013.1
20260905230108 87 0 0.0 0.0 0.00 0.00 0.00 67 1013.2
20260905225557 87 0 0.0 1.0 0.00 0.00 0.00 66 1013.3
20260905225056 87 0 0.0 1.0 0.00 0.00 0.00 65 1013.2
20260905224608 87 0 0.0 1.0 0.00 0.00 0.00 65 1013.2
20260905224057 86 0 0.0 2.0 0.00 0.00 0.00 66 1013.1
20260905223557 86 0 0.0 3.0 0.00 0.00 0.00 64 1013.2
20260905223102 86 232 0.0 3.0 0.00 0.00 0.00 65 1013.2
20260905222557 86 232 1.0 3.0 0.00 0.00 0.00 64 1013.1
20260905222100 86 146 0.0 4.0 0.00 0.00 0.00 65 1013.2
20260905221606 85 146 1.0 5.0 0.00 0.00 0.00 64 1013.2
20260905221058 85 146 2.0 5.0 0.00 0.00 0.00 63 1013.3
20260905220556 85 136 3.0 7.0 0.00 0.00 0.00 63 1013.3
20260905220118 86 175 3.0 7.0 0.00 0.00 0.00 63 1013.4
20260905215558 86 114 2.0 4.0 0.00 0.00 0.00 63 1013.3
20260905215057 86 117 1.0 3.0 0.00 0.00 0.00 63 1013.4
20260905214602 86 0 0.0 3.0 0.00 0.00 0.00 64 1013.5
20260905214057 85 74 1.0 4.0 0.00 0.00 0.00 63 1013.7
20260905213557 85 113 2.0 5.0 0.00 0.00 0.00 63 1013.7
20260905213108 85 88 2.0 5.0 0.00 0.00 0.00 62 1013.7
20260905212558 85 113 2.0 6.0 0.00 0.00 0.00 63 1013.6
20260905212057 85 80 2.0 7.0 0.00 0.00 0.00 64 1013.9
20260905211609 85 131 3.0 7.0 0.00 0.00 0.00 62 1013.8
20260905211057 84 126 2.0 8.0 0.00 0.00 0.00 62 1013.7
20260905210557 84 207 3.0 8.0 0.00 0.00 0.00 64 1013.9
20260905210104 83 141 4.0 8.0 0.00 0.00 0.00 64 1014.0
20260905205557 83 147 4.0 8.0 0.00 0.00 0.00 67 1014.1
20260905205057 83 148 5.0 8.0 0.00 0.00 0.00 67 1014.0
20260905204602 83 123 4.0 9.0 0.00 0.00 0.00 69 1014.2
20260905204059 83 153 5.0 9.0 0.00 0.00 0.00 69 1014.0
20260905203559 84 146 4.0 9.0 0.00 0.00 0.00 68 1013.9
20260905203103 84 148 5.0 9.0 0.00 0.00 0.00 69 1013.9
20260905202557 84 134 5.0 9.0 0.00 0.00 0.00 70 1013.9
20260905202057 84 138 4.0 8.0 0.00 0.00 0.00 68 1014.2
20260905201604 84 142 4.0 8.0 0.00 0.00 0.00 69 1014.2
20260905201057 84 128 4.0 9.0 0.00 0.00 0.00 68 1014.3
20260905200556 84 59 5.0 9.0 0.00 0.00 0.00 69 1014.3
20260905200114 84 92 4.0 7.0 0.00 0.00 0.00 68 1014.4
20260905195557 84 80 4.0 8.0 0.00 0.00 0.00 69 1014.3
20260905195100 83 109 3.0 10.0 0.00 0.00 0.00 67 1014.3
20260905194604 83 63 5.0 10.0 0.00 0.00 0.00 68 1014.5
20260905194057 82 93 4.0 10.0 0.00 0.00 0.00 72 1014.5
20260905193557 82 105 7.0 11.0 0.00 0.00 0.00 73 1014.6
20260905193103 82 112 6.0 11.0 0.00 0.00 0.00 74 1014.7
20260905192558 82 109 5.0 10.0 0.00 0.00 0.00 75 1015.0
20260905192100 82 136 4.0 10.0 0.00 0.00 0.00 77 1015.1
20260905191604 82 89 5.0 11.0 0.00 0.00 0.00 76 1015.2
20260905191057 81 125 7.0 12.0 0.00 0.00 0.00 71 1015.2
20260905190601 81 119 7.0 12.0 0.00 0.00 0.00 77 1015.3
20260905190113 82 148 9.0 14.0 0.00 0.00 0.00 78 1015.1
20260905185558 82 140 9.0 15.0 0.00 0.00 0.00 78 1015.3
20260905185058 82 120 9.0 15.0 0.00 0.00 0.00 77 1015.2
20260905184607 83 134 8.0 12.0 0.00 0.00 0.00 76 1015.2
20260905184057 83 69 6.0 13.0 0.00 0.00 0.00 75 1015.3
20260905183600 83 132 8.0 13.0 0.00 0.00 0.00 75 1015.2
20260905183125 84 119 5.0 11.0 0.00 0.00 0.00 73 1015.1
20260905182556 84 80 7.0 12.0 0.00 0.00 0.00 70 1015.4
20260905182057 83 109 6.0 13.0 0.00 0.00 0.00 71 1015.5
20260905181605 83 67 8.0 13.0 0.00 0.00 0.00 69 1015.4
20260905181100 83 82 8.0 13.0 0.00 0.00 0.00 68 1015.6
20260905180557 83 87 8.0 12.0 0.00 0.00 0.00 69 1015.7
20260905180104 82 54 5.0 10.0 0.00 0.00 0.00 71 1015.9
20260905175557 82 28 5.0 11.0 0.00 0.00 0.00 72 1015.9
20260905175058 81 110 4.0 13.0 0.00 0.00 0.00 74 1016.0
20260905174606 81 66 5.0 13.0 0.00 0.00 0.00 75 1016.0
20260905174056 81 96 7.0 13.0 0.00 0.00 0.00 75 1016.2
20260905173557 81 55 7.0 16.0 0.00 0.00 0.00 75 1016.4
20260905173101 80 74 10.0 16.0 0.00 0.00 0.00 75 1016.4
20260905172558 81 85 9.0 16.0 0.00 0.00 0.00 75 1016.3
20260905172057 81 91 7.0 16.0 0.00 0.00 0.00 75 1016.4
20260905171605 82 87 11.0 16.0 0.00 0.00 0.00 73 1016.3
20260905171057 84 75 4.0 13.0 0.00 0.00 0.00 71 1016.3
20260905170557 85 350 5.0 13.0 0.00 0.00 0.00 69 1016.4
20260905170107 86 360 3.0 9.0 0.00 0.00 0.00 68 1016.2
20260905165600 87 26 1.0 7.0 0.00 0.00 0.00 67 1016.3
20260905165058 88 0 1.0 7.0 0.00 0.00 0.00 67 1016.3
20260905164607 89 348 1.0 7.0 0.00 0.00 0.00 64 1016.4
20260905164058 89 63 1.0 4.0 0.00 0.00 0.00 64 1016.3
20260905163557 89 341 0.0 4.0 0.00 0.00 0.00 69 1016.0
20260905163105 89 0 2.0 6.0 0.00 0.00 0.00 68 1015.9
20260905162557 88 0 1.0 6.0 0.00 0.00 0.00 68 1016.1
20260905162056 88 166 2.0 6.0 0.00 0.00 0.00 66 1016.1
20260905161604 88 113 2.0 5.0 0.00 0.00 0.00 66 1016.1
20260905161057 88 78 2.0 5.0 0.00 0.00 0.00 66 1016.3
20260905160557 88 19 0.0 3.0 0.00 0.00 0.00 70 1016.4
20260905160123 87 0 0.0 3.0 0.00 0.00 0.00 71 1016.3
20260905155557 86 0 0.0 4.0 0.00 0.00 0.00 70 1016.4
20260905155057 86 333 1.0 4.0 0.00 0.00 0.00 71 1016.3
20260905154601 85 175 0.0 5.0 0.00 0.00 0.00 73 1016.5
20260905154057 85 179 2.0 7.0 0.00 0.00 0.00 73 1016.4
20260905153557 85 237 3.0 8.0 0.00 0.00 0.00 72 1016.4
20260905153112 85 213 2.0 8.0 0.00 0.00 0.00 74 1016.3
20260905152557 85 237 4.0 8.0 0.00 0.00 0.00 73 1016.3
20260905152101 85 179 1.0 6.0 0.00 0.00 0.00 76 1016.3
20260905151609 84 223 2.0 6.0 0.00 0.00 0.00 75 1016.3
20260905151057 85 206 3.0 6.0 0.00 0.00 0.00 77 1016.3
20260905150556 84 179 1.0 6.0 0.00 0.00 0.00 77 1016.3
20260905150104 83 134 0.0 6.0 0.00 0.00 0.00 81 1016.4
20260905145557 83 150 2.0 5.0 0.00 0.00 0.00 78 1016.3
20260905145100 83 245 1.0 4.0 0.00 0.00 0.00 79 1016.5
20260905144604 82 213 1.0 5.0 0.00 0.00 0.00 81 1016.5
20260905144057 82 0 0.0 5.0 0.00 0.00 0.00 82 1016.5
20260905143557 81 241 1.0 4.0 0.00 0.00 0.00 80 1016.5
20260905143107 81 203 1.0 4.0 0.00 0.00 0.00 81 1016.6
20260905142559 80 196 1.0 4.0 0.00 0.00 0.00 81 1016.5
20260905142058 80 171 1.0 5.0 0.00 0.00 0.00 82 1016.5
20260905141602 80 187 2.0 5.0 0.00 0.00 0.00 81 1016.5
20260905141057 80 205 1.0 6.0 0.00 0.00 0.00 81 1016.5
20260905140558 80 194 3.0 6.0 0.00 0.00 0.00 81 1016.6
20260905140109 80 212 2.0 6.0 0.00 0.00 0.00 81 1016.4
20260905135557 80 209 1.0 4.0 0.00 0.00 0.00 80 1016.5
20260905135057 80 188 0.0 3.0 0.00 0.00 0.00 81 1016.5
20260905134605 79 192 1.0 3.0 0.00 0.00 0.00 81 1016.6
20260905134057 79 173 1.0 3.0 0.00 0.00 0.00 81 1016.6
20260905133557 79 188 1.0 4.0 0.00 0.00 0.00 80 1016.6
20260905133107 79 0 1.0 4.0 0.00 0.00 0.00 80 1016.7
20260905132558 79 221 2.0 5.0 0.00 0.00 0.00 79 1016.7
20260905132058 79 205 2.0 5.0 0.00 0.00 0.00 79 1016.7
20260905131610 80 135 2.0 4.0 0.00 0.00 0.00 79 1016.7
20260905131057 80 106 1.0 4.0 0.00 0.00 0.00 80 1016.8
20260905130558 80 142 1.0 4.0 0.00 0.00 0.00 79 1016.9
20260905130125 79 134 1.0 3.0 0.00 0.00 0.00 81 1017.0
20260905125557 79 134 1.0 3.0 0.00 0.00 0.00 81 1017.0
20260905125057 79 134 1.0 3.0 0.00 0.00 0.00 80 1017.0
20260905124605 78 134 1.0 3.0 0.00 0.00 0.00 82 1016.9
20260905124057 78 92 0.0 3.0 0.00 0.00 0.00 82 1017.1
20260905123557 78 92 0.0 2.0 0.00 0.00 0.00 82 1017.0
20260905123104 77 92 0.0 2.0 0.00 0.00 0.00 83 1017.0
20260905122557 77 92 0.0 2.0 0.00 0.00 0.00 84 1016.9
20260905122057 77 0 0.0 2.0 0.00 0.00 0.00 84 1016.9
20260905121611 76 92 1.0 2.0 0.00 0.00 0.00 85 1016.9
20260905121057 76 0 0.0 2.0 0.00 0.00 0.00 85 1016.8
20260905120600 76 92 1.0 2.0 0.00 0.00 0.00 85 1016.8
20260905120114 76 0 0.0 2.0 0.00 0.00 0.00 85 1016.6
20260905115559 75 0 0.0 0.0 0.00 0.00 0.00 86 1016.6
20260905115057 75 0 0.0 2.0 0.00 0.00 0.00 86 1016.5
20260905114604 75 0 0.0 2.0 0.00 0.00 0.00 86 1016.3
20260905114056 74 0 0.0 2.0 0.00 0.00 0.00 87 1016.1
20260905113558 74 0 0.0 1.0 0.00 0.00 0.00 87 1016.2
20260905113116 74 0 0.0 1.0 0.00 0.00 0.00 87 1016.1
20260905112558 74 0 0.0 0.0 0.00 0.00 0.00 87 1016.1
20260905112058 74 0 0.0 2.0 0.00 0.00 0.00 87 1016.0
20260905111613 74 0 0.0 2.0 0.00 0.00 0.00 87 1016.1
20260905111056 74 0 0.0 1.0 0.00 0.00 0.00 87 1016.0
20260905110603 74 0 0.0 1.0 0.00 0.00 0.00 87 1015.9
20260905110105 74 0 0.0 1.0 0.00 0.00 0.00 87 1015.8
20260905105557 74 0 0.0 1.0 0.00 0.00 0.00 87 1015.7
20260905105056 74 352 0.0 2.0 0.00 0.00 0.00 87 1015.6
20260905104604 74 0 0.0 3.0 0.00 0.00 0.00 87 1015.6
20260905104058 74 0 0.0 3.0 0.00 0.00 0.00 87 1015.5
20260905103556 74 0 0.0 3.0 0.00 0.00 0.00 87 1015.5
20260905103105 74 0 0.0 3.0 0.00 0.00 0.00 87 1015.6
20260905102557 74 0 0.0 1.0 0.00 0.00 0.00 87 1015.4
20260905102058 74 0 0.0 2.0 0.00 0.00 0.00 86 1015.3
20260905101606 74 0 0.0 2.0 0.00 0.00 0.00 86 1015.4
20260905101056 74 336 0.0 2.0 0.00 0.00 0.00 86 1015.5
20260905100557 74 0 1.0 2.0 0.00 0.00 0.00 86 1015.4
20260905100105 74 336 0.0 1.0 0.00 0.00 0.00 86 1015.3
20260905095557 74 0 0.0 1.0 0.00 0.00 0.00 86 1015.3
20260905095057 74 0 0.0 1.0 0.00 0.00 0.00 86 1015.3
20260905094604 74 0 0.0 3.0 0.00 0.00 0.00 86 1015.2
20260905094101 74 0 0.0 3.0 0.00 0.00 0.00 86 1015.1
20260905093557 75 0 1.0 4.0 0.00 0.00 0.00 86 1015.1
20260905093101 75 0 1.0 4.0 0.00 0.00 0.00 85 1015.1
20260905092558 75 327 1.0 3.0 0.00 0.00 0.00 85 1015.1
20260905092059 75 331 0.0 2.0 0.00 0.00 0.00 85 1015.0
20260905091609 75 257 0.0 2.0 0.00 0.00 0.00 85 1015.1
20260905091057 75 257 0.0 1.0 0.00 0.00 0.00 85 1015.2
20260905090556 75 0 0.0 0.0 0.00 0.00 0.00 84 1015.3
20260905085558 75 0 0.0 0.0 0.00 0.00 0.00 84 1015.3
20260905085058 75 0 0.0 0.0 0.00 0.00 0.00 83 1015.2
20260905084619 75 0 0.0 0.0 0.00 0.00 0.00 83 1015.2
20260905084057 76 0 0.0 2.0 0.00 0.00 0.00 83 1015.2
20260905083557 76 0 0.0 2.0 0.00 0.00 0.00 84 1015.3
20260905083101 75 257 0.0 2.0 0.00 0.00 0.00 84 1015.3
20260905082557 75 322 0.0 2.0 0.00 0.00 0.00 83 1015.4
20260905082057 75 0 0.0 2.0 0.00 0.00 0.00 83 1015.5
20260905081605 75 0 0.0 2.0 0.00 0.00 0.00 83 1015.5
20260905081057 75 322 1.0 3.0 0.00 0.00 0.00 83 1015.6
20260905080556 75 0 1.0 3.0 0.00 0.00 0.00 83 1015.7